Flag for Uruguay Weather past 2 weeks in Minas, Uruguay

Now
66 °F

Clear.


Feels Like: 66 °F
Forecast: 61 / 90 °F
Wind: 6 mph from North

Location: Capitan Corbeta

Current Time: Dec 19, 2014 at 1:26:58 AM

Latest Report: Dec 19, 2014 at 1:00 AM


Visibility: 10 mi

Pressure: 29.77 "Hg

Humidity: 64%

Dew point: 54 °F

Location of MinasLocation

Historic Weather in Minas — Graph

°F

Minas temperature yesterday

Maximum temperature yesterday: 79 °F (at 6:00 PM)
Minimum temperature yesterday: 63 °F (at 3:00 AM)
Average temperature yesterday: 72 °F

Past Weeks' High & Low Weather Summary

 TemperatureHumidityPressure
High91 °F (Dec 6, 5:00 PM)94% (Dec 8, 6:00 AM)30.12 "Hg (Dec 8, 6:00 AM)
Low52 °F (Dec 4, 6:00 AM)28% (Dec 18, 7:00 PM)29.59 "Hg (Dec 9, 8:00 PM)
Average70 °F71%29.91 "Hg
* Reported Midnight between Dec 3 and Dec 4 — Midnight between Dec 18 and Dec 19, Minas, Weather by CustomWeather, © 2014

Note: Actual official high and low records may vary slightly from our data, if they occured in-between our weather recording intervals... More about our weather records

Advertising

Minas weather history for previous 24 hours

 ConditionsComfort  
Time TempWeatherWind HumidityBarometerVisibility
12:00 AM
Dec 19
68 °FClear.6 mph64%29.77 "Hg10 mi
11:00 PM
Dec 18
70 °FClear.7 mph69%29.77 "Hg10 mi
10:00 PM72 °FClear.7 mph69%29.77 "Hg10 mi
9:00 PM72 °FClear.8 mph69%29.77 "Hg10 mi
8:00 PM77 °FSunny.5 mph47%29.77 "Hg10 mi
7:00 PM77 °FSunny.6 mph28%29.77 "Hg10 mi
6:00 PM79 °FSunny.No wind32%29.80 "Hg10 mi
5:00 PM77 °FSunny.6 mph34%29.80 "Hg10 mi
4:00 PM75 °FSunny.9 mph57%29.83 "Hg10 mi
3:00 PM75 °FPassing clouds.6 mph54%29.86 "HgN/A
2:00 PM73 °FPassing clouds.9 mph65%29.86 "HgN/A
1:00 PM73 °FPassing clouds.5 mph65%29.89 "HgN/A
12:00 PM72 °FPassing clouds.10 mph65%29.89 "HgN/A
11:00 AM72 °FScattered clouds.12 mph65%29.89 "HgN/A
10:00 AM72 °FPassing clouds.13 mph65%29.89 "HgN/A
9:00 AM70 °FScattered clouds.14 mph69%29.89 "HgN/A
8:00 AM68 °FPassing clouds.8 mph69%29.83 "HgN/A
7:00 AM64 °FSunny.6 mph78%29.83 "Hg10 mi
6:00 AM64 °FClear.7 mph83%29.83 "Hg10 mi
5:00 AM66 °FClear.10 mph83%29.80 "Hg10 mi
3:00 AM63 °FPassing clouds.3 mph94%29.80 "HgN/A
Weather by CustomWeather, © 2014

See weather overviewHow to use our weather pages